Zurück zum Katalog

STARLINK-35376

AktivKommunikationVLEO
NORAD 66018·PAYLOAD·🇺🇸 United States

Gestartet Oct 16, 2025 von Cape Canaveral Space Force Station

Loading…

Nächste Überflüge (nächste 24 Stunden)

TLE

AktuellSource: CelesTrak SupGP

Epoche: Sep 14, 2026, 14:45 UTC

1 66018C 25232P   26257.61506944  .00057260  00000+0  16896-2 0  2570
2 66018  53.1573 303.3943 0001088  90.0318 241.7122 15.34401799    13

Verfolge STARLINK-35376 in Echtzeit mit AllMySat

Download on the App Store